Flag for U.S.A. Weather past 2 weeks in Visalia, California, U.S.A.

Now
45 °F

Passing clouds.


Feels Like: 43 °F
Forecast: 39 / 65 °F
Wind: 3 mph from Southeast

Location: Visalia Municipal

Current Time: Mar 4, 2015 at 1:21:58 AM

Latest Report: Mar 4, 2015 at 12:55 AM


Visibility: 10 mi

Pressure: 30.03 "Hg

Humidity: 76%

Dew point: 37 °F

Location of VisaliaLocation

Historic Weather in Visalia — Graph

°F

Visalia temperature yesterday

Maximum temperature yesterday: 64 °F (at 2:35 PM)
Minimum temperature yesterday: 39 °F (at 3:15 AM)
Average temperature yesterday: 50 °F

Past Weeks' High & Low Weather Summary

 TemperatureHumidityPressure
High75 °F (Feb 17, 2:35 PM)94% (Feb 19, 11:15 AM)30.38 "Hg (Feb 19, 11:15 AM)
Low37 °F (Feb 24, 4:35 AM)36% (Feb 17, 3:15 PM)29.71 "Hg (Feb 27, 5:35 PM)
Average52 °F72%30.01 "Hg
* Reported Feb 17 12:15 AM — Mar 4 12:15 AM, Visalia, Weather by CustomWeather, © 2015

Note: Actual official high and low records may vary slightly from our data, if they occured in-between our weather recording intervals... More about our weather records

Advertising

Visalia weather history for previous 24 hours

 ConditionsComfort  
Time TempWeatherWind HumidityBarometerVisibility
12:15 AM
Wed, Mar 4
45 °FPassing clouds.6 mph76%30.02 "Hg10 mi
11:55 PM
Tue, Mar 3
45 °FClear.3 mph71%30.02 "Hg10 mi
11:35 PM46 °FClear.3 mph71%30.01 "Hg10 mi
11:15 PM46 °FClear.6 mph76%30.01 "Hg10 mi
10:55 PM46 °FClear.No wind76%30.01 "Hg10 mi
10:35 PM46 °FClear.3 mph71%30.01 "Hg10 mi
10:15 PM48 °FClear.No wind71%30.01 "Hg10 mi
9:55 PM46 °FClear.No wind71%30.00 "Hg10 mi
9:35 PM48 °FClear.No wind71%29.99 "Hg10 mi
9:15 PM50 °FClear.No wind67%29.99 "Hg10 mi
8:55 PM50 °FClear.No wind67%29.98 "Hg10 mi
8:35 PM48 °FClear.No wind71%29.98 "Hg10 mi
8:15 PM50 °FClear.No wind67%29.97 "Hg10 mi
7:55 PM54 °FClear.No wind58%29.97 "Hg10 mi
7:15 PM55 °FClear.No wind55%29.96 "Hg10 mi
6:55 PM57 °FClear.No wind51%29.96 "Hg10 mi
6:35 PM55 °FClear.No wind55%29.96 "Hg10 mi
6:15 PM55 °FClear.6 mph55%29.96 "Hg10 mi
5:55 PM57 °FClear.7 mph51%29.95 "Hg10 mi
5:35 PM61 °FSunny.7 mph45%29.95 "Hg10 mi
5:15 PM61 °FPassing clouds.7 mph52%29.94 "Hg10 mi
4:55 PM63 °FScattered clouds.7 mph49%29.94 "Hg10 mi
4:35 PM63 °FPartly sunny.8 mph49%29.94 "Hg10 mi
4:15 PM63 °FPartly sunny.No wind45%29.94 "Hg10 mi
3:55 PM64 °FPartly sunny.7 mph46%29.95 "Hg10 mi
3:35 PM63 °FPassing clouds.5 mph49%29.95 "Hg10 mi
3:15 PM64 °FPassing clouds.10 mph49%29.96 "Hg10 mi
2:55 PM64 °FPartly sunny.9 mph49%29.96 "Hg10 mi
2:35 PM64 °FMostly cloudy.10 mph52%29.97 "Hg10 mi
2:15 PM61 °FPartly sunny.7 mph52%29.98 "Hg10 mi
1:55 PM61 °FPartly sunny.7 mph52%29.98 "Hg10 mi
1:35 PM61 °FPartly sunny.6 mph55%29.99 "Hg10 mi
1:15 PM61 °FBroken clouds.7 mph55%30.00 "Hg10 mi
12:55 PM61 °FBroken clouds.7 mph59%30.01 "Hg10 mi
12:35 PM61 °FPassing clouds.8 mph55%30.02 "Hg10 mi
12:15 PM59 °FSunny.No wind59%30.03 "Hg10 mi
11:55 AM59 °FSunny.3 mph59%30.03 "Hg10 mi
11:35 AM57 °FSunny.3 mph67%30.04 "Hg10 mi
11:15 AM57 °FSunny.3 mph63%30.04 "Hg10 mi
10:55 AM55 °FSunny.No wind67%30.04 "Hg10 mi
10:35 AM55 °FSunny.3 mph72%30.04 "Hg10 mi
10:15 AM54 °FSunny.No wind72%30.04 "Hg10 mi
9:55 AM52 °FSunny.3 mph72%30.05 "Hg10 mi
9:35 AM52 °FSunny.No wind72%30.04 "Hg10 mi
9:15 AM50 °FSunny.No wind76%30.04 "Hg10 mi
8:55 AM48 °FSunny.No wind71%30.04 "Hg10 mi
8:35 AM46 °FSunny.3 mph82%30.04 "Hg10 mi
8:15 AM46 °FSunny.6 mph76%30.02 "Hg10 mi
7:55 AM45 °FSunny.No wind76%30.02 "Hg10 mi
7:35 AM43 °FSunny.3 mph81%30.01 "Hg8 mi
7:15 AM39 °FSunny.No wind81%30.00 "Hg5 mi
6:55 AM39 °FSunny.3 mph81%29.99 "Hg5 mi
6:35 AM39 °FSunny.No wind81%29.99 "Hg5 mi
6:15 AM39 °FClear.No wind75%29.99 "Hg7 mi
5:55 AM39 °FClear.No wind75%29.99 "Hg10 mi
5:35 AM41 °FClear.No wind76%29.99 "Hg5 mi
5:15 AM43 °FClear.3 mph76%29.99 "Hg10 mi
4:55 AM41 °FClear.No wind76%29.98 "Hg10 mi
4:35 AM39 °FClear.No wind81%29.98 "Hg10 mi
4:15 AM39 °FClear.No wind81%29.98 "Hg10 mi
3:55 AM39 °FClear.No wind81%29.98 "Hg8 mi
3:35 AM39 °FClear.5 mph81%29.98 "Hg6 mi
3:15 AM39 °FClear.No wind81%29.98 "Hg10 mi
2:55 AM41 °FClear.3 mph76%29.98 "Hg10 mi
2:35 AM43 °FClear.No wind76%29.98 "Hg10 mi
2:15 AM43 °FClear.No wind76%29.98 "Hg10 mi
1:55 AM43 °FClear.3 mph71%29.98 "Hg5 mi
1:35 AM41 °FClear.3 mph81%29.98 "Hg7 mi
1:15 AM43 °FClear.No wind76%29.98 "Hg7 mi
Weather by CustomWeather, © 2015

See weather overviewHow to use our weather pages